Regional Weather Roundup
Issued by NWS Upton, NY

Current Version | Previous Version | Text Only | Print | Product List | Glossary On
Versions: 1 2 3 4 5 6 7 8 9 10 11 12 13 14 15 16 17 18 19 20 21 22 23 24 25 26 27
000
ASUS41 KOKX 060608
RWROKX

REGIONAL WEATHER ROUNDUP
NATIONAL WEATHER SERVICE NEW YORK NY
100 AM EST TUE DEC 06 2016

NOTE: "FAIR" INDICATES FEW OR NO CLOUDS BELOW 12,000 FEET WITH NO
SIGNIFICANT WEATHER AND/OR OBSTRUCTIONS TO VISIBILITY.

NYZ071-072-176-178-NJZ106-104-060700-
NEW YORK CITY METRO AREA

CITY           SKY/WX    TMP DP  RH WIND       PRES   REMARKS
Central Park   CLEAR     41  29  62 VRB3      30.12S
Wall St Helipt CLEAR     44  32  62 SW5       30.12R
Bronx Bot Gard NOT AVBL
LaGuardia APRT MOCLDY    45  29  53 NW13      30.10S
Kennedy INTL   PTCLDY    43  27  53 NW9       30.11S
Breezy Point     N/A     41 N/A N/A NW5         N/A
Newark/Liberty PTCLDY    39  31  72 W5        30.11S
Teterboro      CLEAR     39  30  70 NW6       30.10S WCI  35
$$

NYZ177-179-078>081-060700-
LONG ISLAND NEW YORK

CITY           SKY/WX    TMP DP  RH WIND       PRES   REMARKS
Jones Beach      N/A     41 N/A N/A NW8         N/A
Matinecock PT  NOT AVBL
Farmingdale    PTCLDY    40  29  64 NW5       30.10S
MacArthur/ISP  CLEAR     31  27  85 CALM      30.09S
Shirley        CLEAR     33  28  81 NW3       30.09S
Westhampton    CLEAR     26  22  84 CALM      30.10R
Southampton    NOT AVBL
Bridgehampton  NOT AVBL
East Hampton     N/A     39  29  69 NW5       30.07S
Montauk          N/A     44  31  60 NW14      30.08R
$$

NYZ052-065-067-060700-
HUDSON VALLEY

CITY           SKY/WX    TMP DP  RH WIND       PRES   REMARKS
White Plains   CLEAR     39  27  62 NW8       30.08S WCI  33
Newburgh       PTCLDY    32  28  86 W9        30.09F WCI  24
Montgomery     CLEAR     27  25  92 S6        30.09S WCI  20
Poughkeepsie   CLEAR     29  26  89 SE5       30.08S WCI  24
Albany         PTCLDY    37  30  75 W9        30.07S WCI  30
$$

NJZ001-105-106-008-010-013-015-019>022-104-060700-
NEW JERSEY

CITY           SKY/WX    TMP DP  RH WIND       PRES   REMARKS
Newark/Liberty PTCLDY    39  31  72 W5        30.11S
Teterboro      CLEAR     39  30  70 NW6       30.10S WCI  35
Caldwell       CLEAR     31  29  92 CALM      30.12S
Somerville     CLEAR     27  25  92 CALM      30.11R
Linden           N/A     37  31  79 CALM      30.12S
Sussex         CLEAR     27  26  96 CALM      30.10S
Andover          N/A     29  27  92 CALM      30.10F
Trenton        PTCLDY    35  29  78 NW3       30.13R
Millville      CLOUDY    38  33  82 N3        30.12R
Atlantic City  PTCLDY    36  31  82 NW6       30.11R WCI  31
Wrightstown    CLOUDY    36  30  78 NW6       30.10R WCI  31
Toms River     PTCLDY    28  27  96 N3        30.13R
Belmar         PTCLDY    33  30  88 NW6       30.12R WCI  28
$$

PAZ047>061-062-071-060700-
EASTERN PENNSYLVANIA

CITY           SKY/WX    TMP DP  RH WIND       PRES   REMARKS
Philadelphia   MOCLDY    40  30  67 N8        30.13R WCI  34
Allentown      CLOUDY    31  26  82 W3        30.13R
Scranton       CLEAR     31  27  85 CALM      30.09S
$$

CTZ002-004>006-009-010-012-RIZ004-006-007-MAZ004-011-015-060700-
SOUTHERN NEW ENGLAND
 IN CT

CITY           SKY/WX    TMP DP  RH WIND       PRES   REMARKS
Bradley INTL   PTCLDY    34  28  79 W8        30.07R WCI  27
Hartford       CLEAR     32  28  85 SE5       30.08R WCI  27
Danbury        CLEAR     26  24  92 CALM      30.09S
Wtrbury/Oxford CLEAR     30  25  80 CALM      30.07S
Bridgeport     CLEAR     38  27  64 NW6       30.09S WCI  33
Meriden        PTCLDY    29  26  89 CALM      30.09R
New Haven      PTCLDY    37  28  70 N5        30.09R WCI  33
Chester          N/A     37  28  70 W5        30.07R WCI  34
Groton         CLEAR     41  31  67 W8        30.07R
Wilimantic     CLEAR     28  26  92 CALM      30.07R

 IN RI

CITY           SKY/WX    TMP DP  RH WIND       PRES   REMARKS
Providence     CLEAR     37  29  72 W10       30.04R WCI  30
Block Island   CLEAR     43  31  62 NW12G21   30.06R
Westerly       CLEAR     36  28  73 W5        30.07R WCI  32
 IN MA

CITY           SKY/WX    TMP DP  RH WIND       PRES   REMARKS
Boston         CLEAR     37  31  78 W9        30.02R WCI  30
Worcester      CLEAR     32  28  85 W10       30.00R WCI  24
Westfield      CLEAR     36  31  82 W12       30.05R WCI  28
Provincetown   PTCLDY    42  33  70 NW22G31   30.00R
Nantucket      CLEAR     42  31  64 NW21G32   29.98R
$$

ANZ330-335-338-340-345-350-353-355-060700-
COASTAL MARINE OBSERVATIONS


STATION/POSITION TIME  SKY/WX   TEMP    WIND        PRES    VSBY  WAVE
                                AIR SEA DIR/SP/G                  HT/PER
                 (UTC)          (F)     (DEG/KT/KT) (MB)    (MI)  (FT/S)
NY HARB ENTRANCE 0450            47 53  340/ 17/ 19 1018.7          2/ 3
20 S FIRE ISLAND 0450            47 54  330/ 16/ 19 1018.5          3/ 4
GREAT SOUTH BAY  NOT AVBL
23 SSW MONTAUK P 0550            46 53  300/ 17/ 21 1018.2          3/11
15 E BARNEGAT LI 0530               54                N/A           3/ 4
HUDSON CANYON    0550            49 58              1017.9          6/ 5
KINGS POINT      0530            44 48              1019.0
EXECUTION ROCKS  0545            44     310/ 10/ 14   N/A
CENTRAL LI SOUND NOT AVBL
EASTERN LI SOUND NOT AVBL
ROBBINS REEF     0530            43     320/  7/ 10 1019.7
$$


>>>>>>>>>>>>>>>>>>>>>>>>>>>> KEY <<<<<<<<<<<<<<<<<<<<<<<<<<<
>                                                          <
>     SKY/WX - Sky Condition/Present Weather               <
>     TMP    - Temperature in Fahrenheit                   <
>     DP     - Dew Point in Fahrenheit                     <
>     RH     - Relative Humidity in Percent                <
>     WIND   - Direction (from) and Speed in MPH           <
>     PRES   - Mean Sea Level Pressure (inches of Hg)      <
>     WCI    - Wind Chill Index                            <
>     VSB    - VISIBILITY IN MILES                         <
>     HX     - HEAT INDEX                                  <
>     TC     - TEMPERATURE IN CELSIUS                      <
>     VRB    - VARIABLE WIND DIRECTION                     <
>                                                          <
>>>>>>>>>>>>>>>>>>>>>>>>>>>> KEY <<<<<<<<<<<<<<<<<<<<<<<<<<<




USA.gov is the U.S. government's official web portal to all federal, state and local government web resources and services.